[[{"header":{"parameterUnit":"m.s-1","parameterCategory":2,"la1":30.2991,"la2":30.254,"lo1":-89.0895,"lo2":-89.0444,"dy":0.0017,"dx":0.0017,"nx":28,"ny":28,"refTime":"2025-03-18T03:00:00:Z","depth":"0","parameterNumber":2,"parameterNumberName":"U-component_of_CURRENTS"},"data":[0,0,0,0,0,0,0,0,0,0,0,0,0,0,0,0,0,0,0,0,0,0,0,0,0,0,0,0,0,0,0,0,0,0,0,0,0,0,0,0,0,0,0,0,0,0,0,0,0,0,0,0,0,0,0,0,0,0,0.1346,0.1346,0,0.1338,0.1339,0.1339,0.1366,0.1366,0.1367,0.1367,0.1417,0.1418,0.1418,0,0,0,0,0,0,0,0,0,0,0,0,0,0.1395,0.1394,0.1346,0.1346,0.1345,0.1338,0.1339,0.1339,0.1366,0.1366,0.1367,0.1367,0.1416,0.1417,0.1419,0,0,0,0,0,0,0,0,0,0,0,0,0,0.1383,0.1394,0.1346,0.1355,0.1356,0.1338,0.1339,0.1339,0.1366,0.1366,0.1367,0.1368,0.1416,0.1417,0.1419,0.1413,0,0,0.1423,0.1423,0,0,0,0,0,0,0,0,0.1383,0.1381,0.1354,0.1354,0.1355,0.135,0.1374,0.1365,0.1365,0.1366,0.1367,0.1368,0.1397,0.14,0.1401,0.1415,0.1417,0.1423,0.1424,0.1424,0.1425,0,0,0,0,0,0,0,0.1384,0.1382,0.1347,0.1354,0.1354,0.1363,0.1362,0.1372,0.1381,0.1366,0.1367,0.136,0.1398,0.14,0.1403,0.1418,0.1423,0.1424,0.1425,0.1425,0.1496,0.1497,0,0,0,0,0,0,0.1376,0.1382,0.1347,0.1346,0.1367,0.1361,0.1361,0.1354,0.138,0.1383,0.1359,0.1361,0.1397,0.1401,0.1405,0.1518,0.1424,0.1425,0.1426,0.1495,0.1496,0.1497,0,0,0,0,0,0,0.1377,0.1373,0.1347,0.1361,0.1358,0.1359,0.1352,0.1354,0.1355,0.1374,0.1379,0.1359,0.1398,0.1403,0.1421,0.1516,0.1426,0.1427,0.1493,0.1495,0.1497,0.1668,0,0,0,0,0,0,0.1379,0.1374,0.1372,0.1361,0.1357,0.1334,0.1351,0.1353,0.1348,0.1351,0.1375,0.138,0.1399,0.1419,0.1423,0.1516,0.1428,0.1492,0.1494,0.1496,0.1661,0.1676,0.1688,0,0,0,0,0,0.138,0.1358,0.1373,0.1368,0.1353,0.1334,0.1333,0.1339,0.1347,0.1344,0.1369,0.138,0.1436,0.142,0.1424,0.1521,0.1491,0.1494,0.1496,0.1655,0.1673,0.1688,0,0,0,0,0,0,0.1398,0.1358,0.1374,0.1349,0.1347,0.1337,0.1325,0.1334,0.1349,0.1354,0.138,0.1387,0.1442,0.143,0.1412,0.1538,0.147,0.1474,0.159,0.1607,0.162,0.1683,0.1429,0,0,0,0,0,0.1397,0.1365,0.1352,0.1341,0.1328,0.1331,0.1325,0.1331,0.1336,0.1343,0.1367,0.1398,0.1453,0.1485,0.1499,0.156,0.1577,0.1622,0.1635,0.1647,0.1696,0.1777,0.1805,0.1505,0.1505,0.1505,0,0,0.1407,0.1379,0.1368,0.1341,0.1335,0.137,0.1329,0.1313,0.1387,0.1346,0.1432,0.1427,0.1467,0.1549,0.1576,0.1559,0.1735,0.165,0.1661,0.1705,0.1783,0.1813,0.184,0.1507,0.1507,0.1506,0,0,0.1417,0.1379,0.1369,0.137,0.1352,0.1367,0.1364,0.1358,0.1392,0.1446,0.1465,0.1518,0.156,0.1648,0.1694,0.178,0.1784,0.1766,0.1923,0.2001,0.2028,0.2052,0.2102,0.2129,0.1798,0.1799,0.1799,0,0.1445,0.1442,0.1369,0.1383,0.1415,0.1378,0.1434,0.1464,0.1483,0.1539,0.149,0.162,0.1639,0.1821,0.1866,0.1828,0.1842,0.1872,0.2026,0.205,0.2073,0.2117,0.2146,0.1807,0.1806,0.1805,0.1804,0,0.1465,0.1487,0.1475,0.1507,0.1526,0.1544,0.1585,0.162,0.1646,0.1698,0.1812,0.1827,0.1915,0.194,0.1948,0.2131,0.2079,0.2019,0.2003,0.2115,0.2152,0.2179,0.1819,0.1816,0.1814,0.1812,0,0,0.1501,0.1496,0.1507,0.1563,0.1598,0.162,0.1737,0.1845,0.1938,0.1968,0.2105,0.2219,0.2191,0.224,0.2241,0.234,0.2507,0.2266,0.2266,0.2347,0.2665,0.2577,0.2596,0.2469,0.2475,0.2479,0.2626,0,0.1572,0.1631,0.162,0.1748,0.1803,0.1828,0.1947,0.2039,0.2097,0.2198,0.2267,0.2355,0.2319,0.2345,0.245,0.2461,0.2585,0.2472,0.2517,0.252,0.2456,0.2628,0.2553,0.2674,0.2651,0.2656,0.2659,0,0.1638,0.1671,0.1784,0.1896,0.192,0.1994,0.2162,0.2257,0.2395,0.2433,0.2534,0.2529,0.2686,0.2598,0.277,0.2687,0.2723,0.2739,0.2743,0.2632,0.2483,0.2556,0.2722,0.2647,0.2699,0.2696,0.2693,0,0.1736,0.1813,0.1911,0.1947,0.2051,0.2124,0.2195,0.2334,0.2421,0.2564,0.2611,0.275,0.2792,0.2875,0.288,0.2838,0.3029,0.2956,0.2936,0.2927,0.2864,0.284,0.2998,0.314,0.3139,0.3139,0.3138,0,0.1845,0.1939,0.1949,0.2013,0.2145,0.2189,0.2336,0.243,0.2539,0.265,0.2714,0.2802,0.2863,0.2937,0.2958,0.3018,0.309,0.303,0.2994,0.2913,0.2892,0.2816,0.2766,0.3144,0.3143,0.3142,0.3141,0,0.1979,0.1981,0.2107,0.2182,0.2196,0.2302,0.2385,0.2468,0.2574,0.2708,0.2746,0.2867,0.2953,0.2994,0.311,0.3101,0.3087,0.3176,0.3058,0.3007,0.2891,0.2851,0.287,0.2786,0.3207,0.3206,0.3205,0,0.2067,0.212,0.2209,0.2243,0.2273,0.237,0.2414,0.2499,0.256,0.2742,0.2796,0.2917,0.2983,0.3101,0.3113,0.316,0.3073,0.3127,0.3061,0.2946,0.2877,0.2736,0.2654,0.3042,0.304,0.3038,0.3037,0,0.2217,0.223,0.2302,0.2353,0.239,0.2435,0.2484,0.2519,0.2616,0.2705,0.2809,0.2875,0.3002,0.3002,0.3054,0.308,0.2973,0.3094,0.3038,0.2849,0.2651,0.2527,0.2853,0.3023,0.3024,0.3025,0.3026,0.3027,0.2321,0.2374,0.2398,0.2454,0.2471,0.2448,0.2442,0.2468,0.2521,0.2585,0.2732,0.2764,0.2896,0.2949,0.2936,0.2895,0.2875,0.2863,0.2854,0.2743,0.259,0.287,0.2937,0.2938,0.2939,0.294,0.294,0,0.24,0.2407,0.2466,0.2479,0.2443,0.2452,0.2433,0.238,0.2364,0.2446,0.2509,0.259,0.2655,0.2713,0.2773,0.2685,0.2564,0.2634,0.2466,0.2417,0.2753,0.2671,0.2606,0.2606,0.2606,0.2606,0.2606,0.2606,0.2442,0.2474,0.2473,0.2409,0.2378,0.2272,0.2221,0.2178,0.2174,0.2149,0.2143,0.222,0.2435,0.2627,0.2599,0.2544,0.2337,0.2256,0.2218,0.2499,0.2519,0.2539,0.2453,0.2343,0.2343,0.1798,0.1794,0.1791]},{"header":{"parameterUnit":"m.s-1","parameterCategory":2,"la1":30.2991,"la2":30.254,"lo1":-89.0895,"lo2":-89.0444,"dy":0.0017,"dx":0.0017,"nx":28,"ny":28,"refTime":"2025-03-18T03:00:00:Z","depth":"0","parameterNumber":3,"parameterNumberName":"V-component_of_CURRENTS"},"data":[0,0,0,0,0,0,0,0,0,0,0,0,0,0,0,0,0,0,0,0,0,0,0,0,0,0,0,0,0,0,0,0,0,0,0,0,0,0,0,0,0,0,0,0,0,0,0,0,0,0,0,0,0,0,0,0,0,0,-0.0185,-0.0185,0,-0.0233,-0.0233,-0.0234,-0.0264,-0.0264,-0.0265,-0.0265,-0.0348,-0.035,-0.0352,0,0,0,0,0,0,0,0,0,0,0,0,0,-0.0125,-0.0125,-0.0185,-0.0185,-0.0186,-0.0233,-0.0233,-0.0234,-0.0264,-0.0264,-0.0265,-0.0265,-0.0347,-0.035,-0.0352,0,0,0,0,0,0,0,0,0,0,0,0,0,-0.0159,-0.0126,-0.0185,-0.0207,-0.021,-0.0233,-0.0233,-0.0234,-0.0264,-0.0264,-0.0265,-0.0265,-0.0346,-0.0349,-0.0352,-0.0364,0,0,-0.0361,-0.0363,0,0,0,0,0,0,0,0,-0.0157,-0.0161,-0.0203,-0.0206,-0.0208,-0.0243,-0.0243,-0.028,-0.0264,-0.0243,-0.0265,-0.0265,-0.0316,-0.0322,-0.0329,-0.0368,-0.0372,-0.0362,-0.0364,-0.0365,-0.0366,0,0,0,0,0,0,0,-0.0155,-0.0159,-0.0203,-0.0204,-0.0207,-0.0217,-0.0222,-0.025,-0.0277,-0.0245,-0.0247,-0.0253,-0.0318,-0.0326,-0.0331,-0.0373,-0.0362,-0.0364,-0.0366,-0.0367,-0.0329,-0.0326,0,0,0,0,0,0,-0.0149,-0.0157,-0.0202,-0.0205,-0.0183,-0.0217,-0.0223,-0.0231,-0.0277,-0.0284,-0.0253,-0.0254,-0.0321,-0.0328,-0.0334,-0.0232,-0.0365,-0.0368,-0.0369,-0.0331,-0.0328,-0.0325,0,0,0,0,0,0,-0.0148,-0.0153,-0.02,-0.0182,-0.0189,-0.0218,-0.0227,-0.0232,-0.0238,-0.0282,-0.029,-0.0253,-0.0321,-0.033,-0.033,-0.0241,-0.0369,-0.0372,-0.0335,-0.033,-0.0327,-0.0106,0,0,0,0,0,0,-0.0146,-0.0152,-0.0156,-0.0182,-0.019,-0.0191,-0.0227,-0.0233,-0.0241,-0.0244,-0.0285,-0.0293,-0.0322,-0.0325,-0.0333,-0.0247,-0.0374,-0.0338,-0.0333,-0.0328,-0.0117,-0.0094,-0.0075,0,0,0,0,0,-0.0143,-0.0144,-0.0156,-0.0161,-0.0194,-0.019,-0.0193,-0.0216,-0.0241,-0.0226,-0.0249,-0.0292,-0.0296,-0.0326,-0.0336,-0.0248,-0.0341,-0.0334,-0.0328,-0.0126,-0.0099,-0.0076,0,0,0,0,0,0,-0.0129,-0.0148,-0.0161,-0.0171,-0.017,-0.0195,-0.0189,-0.0211,-0.022,-0.022,-0.0272,-0.028,-0.0242,-0.0289,-0.032,-0.0223,-0.0319,-0.0315,-0.0162,-0.0137,-0.0117,-0.0044,-0.0377,0,0,0,0,0,-0.0126,-0.0124,-0.0141,-0.0145,-0.0141,-0.0165,-0.017,-0.0178,-0.0191,-0.0196,-0.0217,-0.0233,-0.0223,-0.0218,-0.0231,-0.0191,-0.0244,-0.0138,-0.0118,-0.01,-0.0048,-0.008,-0.0057,-0.0304,-0.0304,-0.0304,0,0,-0.0121,-0.0132,-0.0132,-0.014,-0.0144,-0.0071,-0.0168,-0.0155,-0.0073,-0.0204,-0.0115,-0.0174,-0.0203,-0.014,-0.0125,-0.0165,-0.0058,-0.0092,-0.0076,-0.0033,-0.0071,-0.0047,-0.0025,-0.03,-0.03,-0.0301,0,0,-0.0062,-0.0115,-0.0062,-0.0044,-0.0034,-0.0027,-0.0017,-0.0021,-0.0006,0.0048,-0.0006,0.0001,-0.0007,0.0021,0.0027,0.0148,0.0041,0.0122,0.0303,0.0271,0.0291,0.0309,0.0269,0.0282,0.0146,0.0146,0.0147,0,-0.0047,0.002,-0.0047,0.0033,0.0083,0.0013,0.0127,0.014,0.0144,0.017,0.0112,0.013,0.0101,0.0202,0.0262,0.0207,0.014,0.0214,0.03,0.0316,0.033,0.0285,0.0296,0.0158,0.0157,0.0155,0.0154,0,0.0082,0.0147,0.0179,0.0279,0.0317,0.0385,0.0414,0.045,0.0443,0.0445,0.0496,0.0439,0.0447,0.0448,0.0405,0.0504,0.0407,0.0317,0.0243,0.0369,0.0312,0.032,0.0174,0.017,0.0167,0.0164,0,0,0.0114,0.0252,0.027,0.0373,0.0459,0.0505,0.0647,0.0742,0.0804,0.0796,0.0873,0.0909,0.0804,0.0806,0.0723,0.0726,0.0776,0.0583,0.0576,0.0557,0.0682,0.062,0.0619,0.0668,0.0671,0.0673,0.0601,0,0.026,0.0463,0.05,0.0722,0.0843,0.0853,0.0986,0.1047,0.1044,0.1081,0.1033,0.1043,0.096,0.0926,0.0933,0.0773,0.0804,0.0803,0.0554,0.0548,0.0487,0.0631,0.0623,0.0559,0.0607,0.0608,0.0609,0,0.0415,0.053,0.0767,0.0966,0.1014,0.1127,0.1276,0.1378,0.1407,0.1391,0.138,0.1265,0.1276,0.1156,0.1049,0.1026,0.092,0.0813,0.0805,0.0687,0.0502,0.0439,0.0568,0.0408,0.0618,0.0618,0.0617,0,0.0507,0.0733,0.0929,0.0997,0.1192,0.1293,0.1389,0.1462,0.153,0.1543,0.1536,0.1486,0.1425,0.1301,0.1076,0.1046,0.0915,0.0826,0.0703,0.0693,0.0618,0.0599,0.0582,0.0829,0.0829,0.0829,0.0829,0,0.0675,0.0833,0.0973,0.108,0.1279,0.138,0.154,0.1616,0.168,0.1756,0.1667,0.1679,0.1452,0.1314,0.1135,0.093,0.0956,0.0792,0.0698,0.0692,0.0681,0.0477,0.0394,0.0826,0.0827,0.0827,0.0828,0,0.0778,0.0882,0.11,0.1287,0.1335,0.1472,0.1626,0.1713,0.1775,0.186,0.1862,0.18,0.1631,0.1386,0.1151,0.0997,0.0714,0.0738,0.0744,0.0656,0.0405,0.0334,0.0249,0.0195,0.0613,0.0612,0.0611,0,0.0867,0.0983,0.1189,0.1283,0.1371,0.1533,0.163,0.1747,0.1825,0.1939,0.198,0.1864,0.1806,0.1432,0.1098,0.0787,0.0667,0.0613,0.061,0.0453,0.0304,0.0262,0.0221,0.0582,0.0581,0.058,0.0579,0,0.0998,0.1049,0.1185,0.1361,0.1484,0.1634,0.1776,0.1847,0.1986,0.207,0.2158,0.2132,0.1799,0.1474,0.1045,0.0834,0.0514,0.0582,0.0422,0.0325,0.0278,0.0157,0.0549,0.0568,0.0569,0.057,0.0571,0.0571,0.1048,0.1137,0.1272,0.1449,0.1577,0.173,0.1841,0.1969,0.2122,0.2273,0.2271,0.2236,0.1821,0.1234,0.093,0.0381,0.0437,0.0262,0.0201,0.0182,0.0126,0.051,0.0413,0.0414,0.0414,0.0414,0.0414,0,0.1118,0.1201,0.1351,0.155,0.1676,0.1751,0.1932,0.2035,0.2201,0.2294,0.2383,0.2104,0.1639,0.1106,0.0402,0.0055,-0.0032,-0.0107,-0.0157,-0.0172,0.0163,0.0157,-0.0002,-0.0002,-0.0002,-0.0002,-0.0002,-0.0002,0.1164,0.1289,0.1366,0.1585,0.1706,0.1863,0.1964,0.2134,0.2214,0.2291,0.221,0.2179,0.1767,0.0653,-0.0113,-0.0278,-0.05,-0.0533,-0.0618,-0.0405,-0.0375,-0.0346,-0.0371,-0.0638,-0.0638,-0.0908,-0.0912,-0.0914]}],[{"header":{"parameterUnit":"m.s-1","parameterCategory":2,"la1":30.2991,"la2":30.254,"lo1":-89.0895,"lo2":-89.0444,"dy":0.0017,"dx":0.0017,"nx":28,"ny":28,"refTime":"2025-03-18T03:00:00:Z","depth":"2","parameterNumber":2,"parameterNumberName":"U-component_of_CURRENTS"},"data":[0,0,0,0,0,0,0,0,0,0,0,0,0,0,0,0,0,0,0,0,0,0,0,0,0,0,0,0,0,0,0,0,0,0,0,0,0,0,0,0,0,0,0,0,0,0,0,0,0,0,0,0,0,0,0,0,0,0,0.1309,0.1309,0,0.1304,0.1304,0.1305,0.1334,0.1334,0.1335,0.1335,0.1384,0.1385,0.1386,0,0,0,0,0,0,0,0,0,0,0,0,0,0.134,0.134,0.1309,0.1308,0.1308,0.1304,0.1305,0.1305,0.1334,0.1334,0.1335,0.1336,0.1384,0.1385,0.1386,0,0,0,0,0,0,0,0,0,0,0,0,0,0.1333,0.134,0.1309,0.132,0.132,0.1304,0.1305,0.1305,0.1334,0.1334,0.1335,0.1336,0.1383,0.1385,0.1386,0.1378,0,0,0.139,0.139,0,0,0,0,0,0,0,0,0.1334,0.1333,0.1318,0.1319,0.1319,0.1317,0.1333,0.1331,0.1333,0.1332,0.1335,0.1336,0.1364,0.1367,0.1368,0.138,0.1382,0.139,0.139,0.1391,0.1391,0,0,0,0,0,0,0,0.1334,0.1333,0.1311,0.1318,0.1318,0.1323,0.1324,0.1333,0.1347,0.1332,0.1334,0.1327,0.1365,0.1367,0.137,0.1383,0.139,0.1391,0.1391,0.1392,0.146,0.1461,0,0,0,0,0,0,0.1327,0.1333,0.1311,0.131,0.1325,0.1322,0.1323,0.132,0.1346,0.1349,0.1327,0.1329,0.1364,0.1368,0.1372,0.1478,0.1391,0.1392,0.1393,0.1459,0.146,0.1462,0,0,0,0,0,0,0.1328,0.1325,0.1311,0.1319,0.1317,0.132,0.1318,0.132,0.1322,0.1341,0.1346,0.1327,0.1365,0.137,0.1388,0.1475,0.1393,0.1394,0.1458,0.1459,0.1461,0.1617,0,0,0,0,0,0,0.1329,0.1326,0.1327,0.1318,0.1316,0.1299,0.1316,0.1319,0.1315,0.1318,0.1342,0.1348,0.1366,0.1386,0.1389,0.1476,0.1395,0.1456,0.1459,0.146,0.161,0.1623,0.1635,0,0,0,0,0,0.133,0.131,0.1327,0.1324,0.1316,0.1298,0.1298,0.1305,0.1314,0.1312,0.1336,0.1347,0.1402,0.1387,0.1391,0.148,0.1455,0.1458,0.146,0.1605,0.1621,0.1635,0,0,0,0,0,0,0.134,0.1311,0.1329,0.1309,0.1309,0.1302,0.129,0.13,0.1315,0.1321,0.1347,0.1354,0.1407,0.1396,0.1379,0.1498,0.1436,0.1439,0.1545,0.156,0.1572,0.1623,0.1396,0,0,0,0,0,0.134,0.1315,0.1307,0.13,0.1288,0.1293,0.1288,0.1296,0.1302,0.1309,0.1334,0.1365,0.1418,0.1447,0.1463,0.1518,0.1509,0.1576,0.1589,0.16,0.164,0.1652,0.1671,0.147,0.147,0.1469,0,0,0.1348,0.1327,0.1319,0.1299,0.1295,0.1329,0.1293,0.1278,0.1351,0.1312,0.1397,0.1393,0.1431,0.1509,0.1535,0.1518,0.1653,0.1603,0.1613,0.1648,0.1657,0.1677,0.1695,0.1471,0.1471,0.1471,0,0,0.1356,0.1326,0.1318,0.1322,0.1309,0.1325,0.1322,0.1319,0.1354,0.141,0.1428,0.1476,0.152,0.16,0.1644,0.1724,0.1701,0.1714,0.1849,0.1861,0.1879,0.1894,0.1921,0.1938,0.174,0.1741,0.1741,0,0.1381,0.138,0.1318,0.1334,0.1366,0.1335,0.1388,0.142,0.1442,0.1486,0.1453,0.1562,0.1594,0.1746,0.1799,0.1767,0.1748,0.1801,0.1882,0.1897,0.191,0.1933,0.195,0.1748,0.1748,0.1747,0.1746,0,0.1398,0.1421,0.1409,0.1447,0.1469,0.1485,0.1531,0.1557,0.1587,0.1636,0.1729,0.1752,0.1819,0.1855,0.1876,0.2006,0.1953,0.1883,0.1856,0.1941,0.1958,0.1973,0.176,0.1757,0.1755,0.1753,0,0,0.1433,0.1427,0.144,0.1488,0.1532,0.1553,0.1661,0.1753,0.1818,0.1859,0.1948,0.2088,0.2052,0.2098,0.2103,0.2161,0.2266,0.2084,0.208,0.2133,0.2293,0.2154,0.2156,0.2188,0.2191,0.2193,0.2273,0,0.1495,0.1546,0.1543,0.166,0.1707,0.1729,0.1825,0.1906,0.196,0.2018,0.2082,0.2147,0.2162,0.2169,0.2241,0.2238,0.2308,0.2252,0.2184,0.2184,0.2068,0.217,0.1998,0.2044,0.2287,0.2289,0.2291,0,0.1555,0.1581,0.1681,0.1766,0.1785,0.185,0.1973,0.2056,0.2144,0.2167,0.2243,0.224,0.2376,0.2306,0.2428,0.2374,0.2372,0.2371,0.237,0.2204,0.2072,0.1993,0.206,0.2314,0.2312,0.231,0.2309,0,0.1632,0.1702,0.1785,0.1818,0.1895,0.1946,0.1999,0.2101,0.2172,0.2247,0.2275,0.2373,0.2401,0.2435,0.2456,0.2435,0.2519,0.2467,0.2358,0.2348,0.2176,0.2144,0.2547,0.2547,0.2547,0.2547,0.2547,0,0.1719,0.1804,0.1806,0.1856,0.194,0.1987,0.2094,0.2137,0.2207,0.2273,0.234,0.2384,0.2427,0.2464,0.2476,0.2463,0.2533,0.2424,0.237,0.2221,0.2194,0.2391,0.2372,0.255,0.2549,0.2549,0.2548,0,0.1825,0.1829,0.1927,0.1972,0.1976,0.2048,0.2122,0.2155,0.2249,0.232,0.2339,0.2419,0.245,0.2477,0.2507,0.2477,0.2473,0.2439,0.2269,0.2194,0.2303,0.2291,0.2369,0.2365,0.2362,0.2359,0.2357,0,0.1889,0.1928,0.1983,0.1974,0.1988,0.2065,0.2059,0.2155,0.2189,0.2335,0.2331,0.2403,0.2375,0.2389,0.2341,0.2314,0.2388,0.2145,0.2092,0.2352,0.2291,0.2284,0.2276,0.1944,0.1938,0.1934,0.193,0,0.1965,0.1971,0.1984,0.1951,0.1943,0.201,0.2025,0.2061,0.2149,0.2181,0.2217,0.2213,0.2245,0.212,0.207,0.2032,0.2133,0.2048,0.2371,0.1987,0.1948,0.1888,0.1896,0.1889,0.1893,0.1896,0.1898,0.19,0.1952,0.1965,0.1885,0.1876,0.1867,0.1872,0.1888,0.1867,0.187,0.1881,0.1981,0.193,0.1975,0.1797,0.1749,0.1738,0.1865,0.1808,0.1824,0.1845,0.1753,0.1706,0.1589,0.1591,0.1593,0.1594,0.1596,0,0.1842,0.1825,0.1783,0.1729,0.1686,0.1758,0.1769,0.1738,0.1645,0.1665,0.1641,0.1486,0.1401,0.1496,0.1421,0.1403,0.1409,0.1355,0.138,0.1419,0.1454,0.1345,0.1072,0.1071,0.107,0.1069,0,0,0.1732,0.1642,0.1628,0.1511,0.1522,0.148,0.1505,0.1433,0.1427,0.1265,0.1233,0.1316,0.1425,0.1237,0.1204,0.1152,0.1276,0.1093,0.1507,0.1574,0.1608,0.1698,0.157,0,0,0,0,0]},{"header":{"parameterUnit":"m.s-1","parameterCategory":2,"la1":30.2991,"la2":30.254,"lo1":-89.0895,"lo2":-89.0444,"dy":0.0017,"dx":0.0017,"nx":28,"ny":28,"refTime":"2025-03-18T03:00:00:Z","depth":"2","parameterNumber":3,"parameterNumberName":"V-component_of_CURRENTS"},"data":[0,0,0,0,0,0,0,0,0,0,0,0,0,0,0,0,0,0,0,0,0,0,0,0,0,0,0,0,0,0,0,0,0,0,0,0,0,0,0,0,0,0,0,0,0,0,0,0,0,0,0,0,0,0,0,0,0,0,-0.0243,-0.0243,0,-0.029,-0.029,-0.0291,-0.0324,-0.0324,-0.0324,-0.0325,-0.0408,-0.0409,-0.0411,0,0,0,0,0,0,0,0,0,0,0,0,0,-0.0196,-0.0197,-0.0243,-0.0243,-0.0244,-0.0289,-0.029,-0.0291,-0.0324,-0.0324,-0.0324,-0.0325,-0.0407,-0.0409,-0.0412,0,0,0,0,0,0,0,0,0,0,0,0,0,-0.0227,-0.0197,-0.0243,-0.0266,-0.0269,-0.0289,-0.029,-0.0291,-0.0324,-0.0324,-0.0324,-0.0325,-0.0406,-0.0409,-0.0412,-0.0421,0,0,-0.0421,-0.0422,0,0,0,0,0,0,0,0,-0.0225,-0.0228,-0.0262,-0.0265,-0.0268,-0.0301,-0.0304,-0.0336,-0.0323,-0.0302,-0.0325,-0.0325,-0.0375,-0.0381,-0.0388,-0.0425,-0.0429,-0.0421,-0.0423,-0.0424,-0.0425,0,0,0,0,0,0,0,-0.0223,-0.0227,-0.0261,-0.0263,-0.0266,-0.0279,-0.0284,-0.031,-0.0336,-0.0304,-0.0307,-0.0312,-0.0377,-0.0385,-0.039,-0.043,-0.0421,-0.0424,-0.0425,-0.0426,-0.0389,-0.0386,0,0,0,0,0,0,-0.0216,-0.0224,-0.026,-0.0263,-0.0247,-0.028,-0.0285,-0.029,-0.0335,-0.0342,-0.0312,-0.0314,-0.038,-0.0387,-0.0393,-0.0307,-0.0424,-0.0427,-0.0428,-0.0392,-0.0388,-0.0385,0,0,0,0,0,0,-0.0215,-0.0219,-0.0258,-0.0245,-0.0251,-0.028,-0.0285,-0.0291,-0.0296,-0.0341,-0.0349,-0.0312,-0.038,-0.0389,-0.0389,-0.0315,-0.0428,-0.0431,-0.0395,-0.0391,-0.0387,-0.02,0,0,0,0,0,0,-0.0214,-0.0218,-0.022,-0.0244,-0.0251,-0.0249,-0.0285,-0.0291,-0.0299,-0.0302,-0.0343,-0.0352,-0.0381,-0.0384,-0.0392,-0.0321,-0.0433,-0.0398,-0.0393,-0.0388,-0.021,-0.019,-0.0173,0,0,0,0,0,-0.0212,-0.0208,-0.022,-0.0224,-0.0253,-0.0247,-0.0251,-0.0274,-0.0298,-0.0284,-0.0307,-0.035,-0.0356,-0.0385,-0.0394,-0.0322,-0.0401,-0.0394,-0.0389,-0.0218,-0.0194,-0.0174,0,0,0,0,0,0,-0.02,-0.0212,-0.0225,-0.023,-0.0229,-0.0253,-0.0246,-0.0268,-0.0277,-0.0278,-0.033,-0.0338,-0.0306,-0.0348,-0.0378,-0.0296,-0.038,-0.0376,-0.0247,-0.0225,-0.0207,-0.0166,-0.0435,0,0,0,0,0,-0.0195,-0.0188,-0.0204,-0.0204,-0.02,-0.0223,-0.0228,-0.0235,-0.0249,-0.0254,-0.0276,-0.0292,-0.0288,-0.0285,-0.0298,-0.0265,-0.0345,-0.0221,-0.0203,-0.0187,-0.0159,-0.0273,-0.0264,-0.0365,-0.0365,-0.0365,0,0,-0.019,-0.0198,-0.0194,-0.0199,-0.0203,-0.0142,-0.0226,-0.0213,-0.0143,-0.0262,-0.0185,-0.0239,-0.0269,-0.0217,-0.0205,-0.0241,-0.0189,-0.0179,-0.0165,-0.0145,-0.0266,-0.0257,-0.0248,-0.0361,-0.0362,-0.0362,0,0,-0.0138,-0.0178,-0.013,-0.0114,-0.0104,-0.01,-0.009,-0.0094,-0.0079,-0.003,-0.0084,-0.0085,-0.0089,-0.0077,-0.0077,0.0031,-0.0098,0.0014,0.0151,0.004,0.0047,0.0052,0.0004,0.0003,0.0033,0.0033,0.0034,0,-0.0125,-0.0075,-0.0116,-0.0048,-0.001,-0.0064,0.0027,0.0045,0.0049,0.0051,0.0027,0.0006,0.0002,0.0047,0.0118,0.008,-0.0017,0.0072,0.0062,0.0065,0.0066,0.0015,0.0011,0.0043,0.0042,0.0041,0.004,0,-0.0013,0.0031,0.006,0.0145,0.0186,0.0235,0.0273,0.0278,0.0277,0.0284,0.0298,0.0266,0.0241,0.0259,0.0245,0.0266,0.0185,0.0086,0.0003,0.0087,0.0029,0.0022,0.0057,0.0054,0.0051,0.0048,0,0,0.002,0.0121,0.0136,0.0202,0.0289,0.0326,0.0428,0.048,0.0497,0.0507,0.0511,0.0585,0.0497,0.0494,0.0434,0.039,0.0377,0.0268,0.0257,0.022,0.0142,0.0099,0.0085,0.0226,0.0225,0.0224,0.0112,0,0.0127,0.0281,0.0318,0.0481,0.0569,0.0556,0.0633,0.0668,0.068,0.0659,0.0614,0.0611,0.0609,0.0565,0.0533,0.0395,0.0357,0.0419,0.0069,0.0062,0.0008,0.0075,0.0077,-0.0025,0.0103,0.0102,0.0101,0,0.0253,0.0332,0.051,0.0613,0.0644,0.0724,0.0777,0.0851,0.0817,0.0799,0.0772,0.0696,0.0696,0.0617,0.0486,0.0499,0.0367,0.0258,0.0246,0.0135,0.0003,-0.0097,-0.0045,0.0087,0.0088,0.0089,0.009,0,0.0303,0.0471,0.0608,0.0659,0.0766,0.08,0.0846,0.0872,0.0916,0.0872,0.0863,0.0786,0.0733,0.0573,0.044,0.0422,0.0218,0.0143,-0.0013,-0.0017,-0.011,-0.0121,0.001,0.001,0.001,0.001,0.0011,0,0.0401,0.0512,0.0623,0.0678,0.0774,0.0858,0.0953,0.0925,0.0943,0.0975,0.0939,0.0914,0.0702,0.057,0.0424,0.0218,0.0207,0.0041,-0.0052,-0.0038,-0.0041,-0.0035,-0.0038,0.0006,0.0007,0.0008,0.0009,0,0.045,0.0534,0.0673,0.0773,0.0797,0.0872,0.0997,0.1025,0.1074,0.1094,0.1076,0.0986,0.0821,0.0626,0.0335,0.0211,-0.0003,-0.0097,-0.0021,-0.0101,-0.0155,-0.0147,-0.0262,-0.0264,-0.0266,-0.0268,-0.027,0,0.0491,0.0562,0.0693,0.0723,0.0767,0.0899,0.0927,0.103,0.11,0.1147,0.112,0.0985,0.082,0.0462,0.0216,-0.0073,-0.0083,-0.0246,-0.0253,-0.0104,-0.0184,-0.0173,-0.0163,-0.0286,-0.0287,-0.0289,-0.029,0,0.0513,0.0554,0.0607,0.0658,0.0717,0.0866,0.0956,0.1033,0.1139,0.1135,0.1094,0.0954,0.0679,0.0359,0.0003,-0.0171,-0.0188,-0.0282,-0.0202,-0.0212,-0.0137,-0.0212,-0.0199,-0.0301,-0.03,-0.0299,-0.0298,-0.0298,0.0453,0.0492,0.0503,0.0565,0.0649,0.0777,0.0891,0.0973,0.1023,0.1051,0.0968,0.0807,0.0571,0.0082,-0.0141,-0.0297,-0.0315,-0.0401,-0.0394,-0.0386,-0.0364,-0.0296,-0.0482,-0.0482,-0.0482,-0.0482,-0.0482,0,0.0354,0.0392,0.04,0.0482,0.0562,0.0674,0.0849,0.0962,0.1001,0.0959,0.0876,0.0565,0.0228,0.0062,-0.0198,-0.0422,-0.0403,-0.0465,-0.0392,-0.0384,-0.0375,-0.0347,-0.0464,-0.0464,-0.0463,-0.0463,0,0,0.0244,0.0256,0.028,0.0362,0.0472,0.0652,0.0794,0.09,0.0956,0.0834,0.0754,0.0593,0.0315,0.0131,-0.0147,-0.0274,-0.0266,-0.0303,-0.0311,-0.0188,-0.0175,-0.0353,-0.0304,0,0,0,0,0]}],[{"header":{"parameterUnit":"m.s-1","parameterCategory":2,"la1":30.2991,"la2":30.254,"lo1":-89.0895,"lo2":-89.0444,"dy":0.0017,"dx":0.0017,"nx":28,"ny":28,"refTime":"2025-03-18T03:00:00:Z","depth":"4","parameterNumber":2,"parameterNumberName":"U-component_of_CURRENTS"},"data":[0,0,0,0,0,0,0,0,0,0,0,0,0,0,0,0,0,0,0,0,0,0,0,0,0,0,0,0,0,0,0,0,0,0,0,0,0,0,0,0,0,0,0,0,0,0,0,0,0,0,0,0,0,0,0,0,0,0,0.0306,0.0307,0,0.04,0.0401,0.0402,0.0454,0.0454,0.0454,0.0455,0.0518,0.0519,0.052,0,0,0,0,0,0,0,0,0,0,0,0,0,0.0144,0.0147,0.0306,0.0307,0.0308,0.04,0.0401,0.0402,0.0453,0.0454,0.0454,0.0455,0.0517,0.0519,0.052,0,0,0,0,0,0,0,0,0,0,0,0,0,0.0222,0.0148,0.0305,0.0347,0.0352,0.04,0.0401,0.0403,0.0453,0.0454,0.0454,0.0455,0.0517,0.0519,0.0521,0.0522,0,0,0.0527,0.0528,0,0,0,0,0,0,0,0,0.0217,0.0227,0.0339,0.0344,0.035,0.0418,0.0368,0.0442,0.0453,0.0412,0.0455,0.0455,0.0483,0.0488,0.0501,0.0525,0.0528,0.0527,0.0528,0.0529,0.053,0,0,0,0,0,0,0,0.0212,0.0223,0.034,0.0341,0.0347,0.0353,0.0364,0.0382,0.044,0.0416,0.042,0.0435,0.0485,0.0499,0.0503,0.0529,0.0527,0.0529,0.053,0.0531,0.07,0.0703,0,0,0,0,0,0,0.0207,0.0219,0.0337,0.0344,0.0287,0.0355,0.0368,0.0393,0.0441,0.045,0.0434,0.0437,0.0495,0.05,0.0505,0.061,0.0529,0.0531,0.0532,0.0697,0.0701,0.0705,0,0,0,0,0,0,0.0203,0.0217,0.0334,0.0284,0.03,0.0358,0.0386,0.0395,0.0428,0.0456,0.0464,0.046,0.0496,0.0502,0.055,0.0609,0.0532,0.0534,0.0693,0.0698,0.0703,0.0755,0,0,0,0,0,0,0.0198,0.0215,0.0227,0.0285,0.0303,0.0374,0.0386,0.0397,0.0436,0.0441,0.0481,0.0486,0.0497,0.0547,0.0552,0.061,0.0535,0.0689,0.0695,0.0701,0.0749,0.0761,0.0771,0,0,0,0,0,0.0192,0.0208,0.0227,0.0241,0.0319,0.0375,0.0384,0.0424,0.0437,0.0455,0.0492,0.0486,0.0591,0.055,0.0556,0.0616,0.0686,0.0694,0.0701,0.0744,0.0758,0.0771,0,0,0,0,0,0,0.013,0.0217,0.0238,0.0276,0.0326,0.0385,0.0412,0.0433,0.0476,0.05,0.0506,0.0515,0.0591,0.0595,0.0549,0.0689,0.0647,0.0655,0.0678,0.0692,0.0702,0.0734,0.0537,0,0,0,0,0,0.0125,0.0171,0.024,0.0269,0.0305,0.036,0.0387,0.0429,0.0476,0.0497,0.0539,0.0587,0.0623,0.0647,0.0691,0.0743,0.0718,0.0797,0.0808,0.0817,0.0851,0.0817,0.0827,0.0729,0.0729,0.0729,0,0,0.01,0.0161,0.018,0.0261,0.0312,0.0373,0.0379,0.045,0.0498,0.0496,0.059,0.0628,0.0648,0.0726,0.0761,0.0734,0.0835,0.0826,0.0833,0.0863,0.0826,0.0835,0.0842,0.0734,0.0733,0.0732,0,0,0.0121,0.0146,0.0217,0.0257,0.0356,0.0394,0.0417,0.0514,0.0554,0.0638,0.0659,0.0736,0.0795,0.0836,0.085,0.0949,0.0896,0.0967,0.1041,0.1008,0.1014,0.1019,0.0995,0.0998,0.0968,0.0968,0.0968,0,0.0089,0.0194,0.0236,0.0314,0.0344,0.0406,0.0472,0.0519,0.0621,0.0645,0.0685,0.0807,0.0855,0.0902,0.098,0.0975,0.0938,0.0975,0.1016,0.1021,0.1026,0.1,0.1002,0.0971,0.0971,0.0971,0.097,0,0.0167,0.0249,0.0291,0.041,0.0434,0.0506,0.0569,0.0623,0.0689,0.0738,0.0834,0.0916,0.0988,0.1024,0.1049,0.1117,0.1073,0.1027,0.0967,0.1038,0.1008,0.1009,0.0976,0.0975,0.0974,0.0973,0,0,0.0141,0.0314,0.0352,0.0385,0.0494,0.0511,0.0588,0.0656,0.0691,0.0815,0.0871,0.1011,0.1077,0.1106,0.1144,0.1158,0.1201,0.1136,0.1132,0.1088,0.112,0.107,0.1065,0.113,0.1131,0.1132,0.1083,0,0.0212,0.0368,0.0438,0.0526,0.0576,0.0606,0.0638,0.0686,0.077,0.0845,0.0927,0.1026,0.109,0.1162,0.119,0.1212,0.1209,0.122,0.1084,0.1081,0.1004,0.1067,0.1135,0.1083,0.1083,0.1084,0.1084,0,0.0296,0.0379,0.0499,0.0545,0.0568,0.0599,0.0625,0.0689,0.0773,0.0824,0.0935,0.1036,0.1162,0.1186,0.1231,0.1224,0.121,0.1195,0.1189,0.1132,0.1034,0.1003,0.1085,0.1085,0.1085,0.1085,0.1085,0,0.0241,0.0413,0.0496,0.0515,0.058,0.0586,0.0621,0.0682,0.0729,0.0854,0.0899,0.1035,0.1128,0.1139,0.1227,0.1223,0.1211,0.1172,0.1084,0.1079,0.1109,0.1104,0.1155,0.1155,0.1155,0.1155,0.1155,0,0.0263,0.0322,0.047,0.0476,0.0498,0.0551,0.0592,0.0617,0.0717,0.0773,0.0914,0.0974,0.1123,0.1174,0.1201,0.117,0.1181,0.1128,0.1072,0.1135,0.1133,0.1108,0.1104,0.1153,0.1154,0.1154,0.1154,0,0.0184,0.0313,0.036,0.0446,0.0466,0.0471,0.0554,0.0595,0.0664,0.0752,0.0808,0.0948,0.1026,0.1114,0.1152,0.1127,0.1102,0.1059,0.1147,0.109,0.0997,0.0997,0.0978,0.0976,0.0974,0.0973,0.0972,0,0.017,0.0196,0.0303,0.0337,0.038,0.0429,0.046,0.0545,0.0607,0.0718,0.0743,0.0883,0.0975,0.0958,0.1047,0.1057,0.1034,0.1,0.1025,0.1037,0.0984,0.0986,0.0987,0.0969,0.0969,0.0968,0.0968,0,0.0072,0.0122,0.0165,0.0258,0.0303,0.0357,0.0425,0.045,0.0571,0.063,0.0697,0.0786,0.0842,0.0935,0.0952,0.0945,0.1034,0.0983,0.0986,0.1009,0.1026,0.0975,0.0978,0.0962,0.0963,0.0963,0.0964,0,-0.0003,0.0009,0.0103,0.0178,0.0243,0.0298,0.0332,0.0414,0.0473,0.0609,0.0628,0.0724,0.0839,0.0869,0.0873,0.09,0.0897,0.0859,0.0869,0.0877,0.0876,0.0885,0.0749,0,0,0,0,0,-0.0066,-0.0033,0.0028,0.0124,0.0199,0.0246,0.0323,0.0377,0.0483,0.0513,0.0583,0.0646,0.072,0.0757,0.0772,0.0832,0.0895,0.0842,0.0854,0.0929,0.0936,0.0951,0,0,0,0,0,0,-0.01,-0.006,0.0005,0.0089,0.0151,0.0225,0.0273,0.0343,0.0369,0.0474,0.0515,0.0592,0.0669,0.0715,0.0756,0.0772,0.0762,0.0906,0.0904,0.0925,0.0931,0.0937,0.0955,0,0,0,0,0]},{"header":{"parameterUnit":"m.s-1","parameterCategory":2,"la1":30.2991,"la2":30.254,"lo1":-89.0895,"lo2":-89.0444,"dy":0.0017,"dx":0.0017,"nx":28,"ny":28,"refTime":"2025-03-18T03:00:00:Z","depth":"4","parameterNumber":3,"parameterNumberName":"V-component_of_CURRENTS"},"data":[0,0,0,0,0,0,0,0,0,0,0,0,0,0,0,0,0,0,0,0,0,0,0,0,0,0,0,0,0,0,0,0,0,0,0,0,0,0,0,0,0,0,0,0,0,0,0,0,0,0,0,0,0,0,0,0,0,0,0.0461,0.0461,0,0.0462,0.0462,0.0462,0.0449,0.0449,0.0448,0.0448,0.0438,0.0438,0.0438,0,0,0,0,0,0,0,0,0,0,0,0,0,0.0366,0.0368,0.0461,0.0461,0.0461,0.0462,0.0462,0.0462,0.0449,0.0449,0.0448,0.0448,0.0438,0.0438,0.0438,0,0,0,0,0,0,0,0,0,0,0,0,0,0.0391,0.0369,0.0461,0.0455,0.0455,0.0462,0.0462,0.0462,0.0449,0.0449,0.0448,0.0448,0.0438,0.0438,0.0438,0.0448,0,0,0.0438,0.0438,0,0,0,0,0,0,0,0,0.039,0.0394,0.0456,0.0455,0.0455,0.0455,0.0425,0.0457,0.0449,0.0451,0.0448,0.0447,0.0443,0.0443,0.0444,0.0447,0.0447,0.0438,0.0438,0.0438,0.0438,0,0,0,0,0,0,0,0.0388,0.0394,0.0461,0.0456,0.0455,0.0424,0.0428,0.043,0.0449,0.045,0.045,0.0451,0.0443,0.0444,0.0443,0.0447,0.0438,0.0438,0.0438,0.0438,0.0313,0.031,0,0,0,0,0,0,0.0394,0.0393,0.0461,0.0461,0.0421,0.0427,0.0431,0.0455,0.0449,0.0448,0.0451,0.045,0.0444,0.0443,0.0443,0.0297,0.0438,0.0438,0.0438,0.0316,0.0312,0.0308,0,0,0,0,0,0,0.0393,0.0401,0.0461,0.0425,0.0431,0.043,0.0457,0.0456,0.0451,0.045,0.0448,0.0447,0.0443,0.0443,0.0416,0.0303,0.0438,0.0438,0.032,0.0315,0.031,0.0107,0,0,0,0,0,0,0.039,0.0401,0.0417,0.0427,0.0433,0.0436,0.0457,0.0456,0.0453,0.0452,0.0446,0.0445,0.0443,0.0415,0.0416,0.0305,0.0438,0.0324,0.0318,0.0312,0.0118,0.0096,0.0077,0,0,0,0,0,0.0387,0.0405,0.0419,0.0426,0.0458,0.0435,0.0433,0.043,0.0453,0.043,0.0428,0.0445,0.0374,0.0414,0.0415,0.0302,0.0327,0.032,0.0312,0.0127,0.01,0.0077,0,0,0,0,0,0,0.0375,0.0406,0.0421,0.045,0.0431,0.0432,0.0415,0.0431,0.0416,0.0416,0.0428,0.0425,0.0345,0.0373,0.0417,0.0248,0.0343,0.0335,0.0202,0.0177,0.0156,0.018,0.0438,0,0,0,0,0,0.0382,0.0393,0.041,0.0421,0.0416,0.0421,0.0415,0.0413,0.0405,0.0399,0.0389,0.0369,0.0317,0.0292,0.0267,0.0202,0.0251,0.0123,0.0102,0.0085,0.0105,0.0083,0.0063,0.0284,0.0284,0.0284,0,0,0.0376,0.0394,0.04,0.0416,0.0406,0.0338,0.0414,0.0392,0.0313,0.0401,0.0299,0.0308,0.0289,0.0185,0.015,0.0193,0.0041,0.0075,0.0059,0.009,0.0073,0.0052,0.0033,0.0279,0.0279,0.028,0,0,0.0303,0.0386,0.0332,0.0319,0.0301,0.0295,0.0287,0.0277,0.0252,0.0179,0.0196,0.0158,0.0092,0.0043,0.0012,-0.0122,-0.0061,-0.0148,-0.0246,-0.027,-0.0288,-0.0303,-0.0292,-0.0304,-0.0168,-0.0168,-0.0169,0,0.0279,0.0253,0.0307,0.0234,0.022,0.0262,0.0183,0.0141,0.0112,0.0108,0.0111,0.0035,0.0007,-0.0104,-0.018,-0.0177,-0.0147,-0.0159,-0.0297,-0.031,-0.0322,-0.0307,-0.0318,-0.0179,-0.0178,-0.0177,-0.0176,0,0.0133,0.0125,0.0096,0.0019,-0.0005,-0.0039,-0.0079,-0.0114,-0.0119,-0.013,-0.0199,-0.0219,-0.0232,-0.0306,-0.0299,-0.0411,-0.035,-0.0317,-0.0233,-0.0357,-0.0333,-0.0341,-0.0194,-0.0191,-0.0187,-0.0185,0,0,0.0042,0.0005,-0.0013,-0.0022,-0.0088,-0.0099,-0.0243,-0.0296,-0.031,-0.0384,-0.0398,-0.0549,-0.0455,-0.048,-0.0469,-0.0533,-0.0633,-0.0472,-0.0468,-0.0458,-0.0655,-0.059,-0.059,-0.062,-0.0622,-0.0624,-0.0614,0,-0.0092,-0.0201,-0.0214,-0.0312,-0.0341,-0.033,-0.0435,-0.0476,-0.0485,-0.049,-0.0518,-0.0524,-0.0557,-0.0522,-0.0605,-0.0573,-0.0657,-0.0636,-0.0535,-0.0532,-0.0458,-0.0599,-0.063,-0.0619,-0.062,-0.0621,-0.0622,0,-0.026,-0.0272,-0.0377,-0.0362,-0.0376,-0.0454,-0.0472,-0.0553,-0.0578,-0.0573,-0.0581,-0.0521,-0.0583,-0.0585,-0.0661,-0.0632,-0.0671,-0.0692,-0.069,-0.055,-0.048,-0.0462,-0.0634,-0.0633,-0.0632,-0.0631,-0.0631,0,-0.0299,-0.0378,-0.0421,-0.0431,-0.0459,-0.0496,-0.0525,-0.0567,-0.0567,-0.057,-0.0534,-0.0558,-0.0531,-0.0595,-0.0614,-0.0625,-0.0678,-0.0682,-0.0683,-0.0676,-0.0641,-0.0624,-0.0791,-0.0791,-0.0791,-0.0791,-0.0791,0,-0.0384,-0.0407,-0.0422,-0.0426,-0.0436,-0.048,-0.0497,-0.0525,-0.0531,-0.049,-0.0529,-0.0494,-0.0537,-0.0536,-0.0594,-0.0631,-0.0657,-0.071,-0.0684,-0.073,-0.0723,-0.0646,-0.063,-0.0791,-0.0791,-0.0791,-0.0791,0,-0.0384,-0.0427,-0.0429,-0.0442,-0.0446,-0.044,-0.045,-0.043,-0.0484,-0.0429,-0.0409,-0.0425,-0.0433,-0.0473,-0.0534,-0.0584,-0.0629,-0.0659,-0.0672,-0.0643,-0.062,-0.0614,-0.0649,-0.0647,-0.0645,-0.0644,-0.0642,0,-0.0372,-0.0386,-0.0389,-0.0364,-0.0359,-0.0363,-0.0352,-0.0398,-0.0369,-0.0379,-0.0328,-0.0326,-0.0336,-0.0373,-0.0457,-0.0536,-0.0585,-0.06,-0.0677,-0.0642,-0.0613,-0.061,-0.0606,-0.064,-0.0639,-0.0639,-0.0638,0,-0.0289,-0.0313,-0.0287,-0.0261,-0.0242,-0.0207,-0.0203,-0.0182,-0.0211,-0.0249,-0.0216,-0.0235,-0.0261,-0.0319,-0.0377,-0.0457,-0.0567,-0.0583,-0.059,-0.0662,-0.0631,-0.0603,-0.0602,-0.0632,-0.0633,-0.0634,-0.0634,0,-0.0195,-0.0165,-0.0166,-0.0138,-0.0098,-0.0061,-0.0079,-0.0058,-0.006,-0.009,-0.0069,-0.0143,-0.0184,-0.028,-0.0331,-0.0382,-0.0434,-0.0474,-0.0487,-0.0495,-0.0465,-0.0404,-0.0328,0,0,0,0,0,-0.0106,-0.0099,-0.0042,-0.0032,0.0014,-0.0002,0.0034,0.0005,-0.004,0.0019,-0.0029,-0.0046,-0.0135,-0.0206,-0.0244,-0.0325,-0.045,-0.0375,-0.0503,-0.0599,-0.0606,-0.0593,0,0,0,0,0,0,-0.0058,-0.0017,-0.0026,0.005,0.0058,0.0092,0.0099,0.0079,0.008,0.0036,-0.0012,-0.0073,-0.0167,-0.0112,-0.0255,-0.028,-0.0367,-0.044,-0.0441,-0.0595,-0.0601,-0.0607,-0.0596,0,0,0,0,0]}]]